sat.trackr.live / text

‹ back to catalog

STARLINK-36242

NORAD 68958 · 2026-099H

PAYLOAD ACTIVE UNKNOWN

§ Identity

Operator
Country
US
Launch date
2026-05-01
Launch site
AFETR
Launch vehicle
Mass (kg)
RCS (m²)

Purposes: comms

External: N2YO · Heavens-Above · Gunter

§ Orbital elements

Epoch: 2026-05-25T04:00:03.998880Z

Period
91.95 min
Inclination
53.1590°
Eccentricity
0.0000820
Mean motion
15.66099926 rev/d
Perigee alt
369.5 km
Apogee alt
370.6 km
Semi-major
6,748.2 km
B*
-2.0550e-2
RAAN
270.0683°
Arg perigee
78.9222°
Mean anomaly
215.9035°
Rev number
501

§ Raw data

STARLINK-362421 68958U 26099H   26145.16671295 -.01903732  00000+0 -20550-1 0  99962 68958  53.1590 270.0683 0000820  78.9222 215.9035 15.66099926  5011

JSON: /api/v1/satellites/68958 · /tle

For live sub-satellite position, see the globe view (requires WebGL).

§ Visibility from observer

Set your observer location to see the next 7 days of passes ≥ 10°. The values pass through the URL so the page stays shareable.

No JS? Fill the form by hand. The geolocation button needs JavaScript.